Simultaneous Nadir Overpasses (SNOs) Predictions

Prediction of SNOs between AQUA and GOES-15 Satellite Orbit:

Table of predicted SNOs for the next 14.0 days since TLE Epoch: 6/10/2015
Index Date Time (AQUA) AQUA Lat,Lon GOES-15 Lat,Lon Distance(km) Time Diff (sec)
1 06/11/2015 10:26:40 -0.45,-132.71 -0.02,-134.66 222.18 80
2 06/11/2015 22:48:03 -0.65,-137.90 0.03,-134.63 372.48 80
3 06/13/2015 22:35:51 -0.05,-134.95 0.03,-134.53 47.13 80
4 06/15/2015 22:23:40 0.58,-131.99 0.04,-134.43 277.84 80
5 06/16/2015 10:44:54 0.55,-137.14 -0.05,-134.41 310.52 80
6 06/18/2015 10:32:42 -0.10,-134.19 -0.05,-134.31 14.50 80
7 06/20/2015 10:20:28 -0.66,-131.21 -0.05,-134.20 338.94 80
8 06/20/2015 22:41:52 -0.41,-136.41 0.06,-134.16 256.12 80
9 06/22/2015 22:29:38 0.18,-133.44 0.06,-134.04 68.36 80




NCC Satellite Simultaneous Nadir Overpasses (SNOs) Prediction Service
